Date String (YYYY-MM-DD hh:mm:ss) UTC,Instrument flags,absolute air pressure of the measurement (hPa),sample flow rate (lpm),inlet stack bypass flow (lpm),air temperature of the measurement (°C),ambient temperature measured by the external sensor (°C),aerosol sample conditioner tube jacket temperature (°C),OPC LED temperature (°C),internal box temperature (°C),relative humidity of the measurement (%),span deviation,mass concentration of particles derived from Lorenz-Mie calculation of OPC scattering (μg/m³),mass concentration of particles derived from Lorenz-Mie calculation of OPC scattering (μg/m³),mass concentration of particles derived from Lorenz-Mie calculation of OPC scattering (μg/m³)
DateTimeUTC,F1_M11,P_M11,Q1_M11,Q2_M11,T1_M11,T2_M11,T3_M11,T4_M11,T5_M11,U1_M11,ZSPAN_M11,X2_M11,X0_M11,X1_M11
2023-11-24 02:00:00,SystemResetWarning,0832.0,5.01,000.00,020.1,019.2,000.0,028.5,021.3,18.2,0000.0,0005.54,0011.27,0004.75
2023-11-24 02:01:00,SystemResetWarning,0832.0,5.01,000.00,020.1,019.2,000.0,028.5,021.3,18.2,0000.0,0005.57,0010.98,0004.76
2023-11-24 02:02:00,SystemResetWarning,0832.0,5.00,000.00,020.1,019.2,000.0,028.5,021.3,18.3,0000.0,0005.60,0011.02,0004.78
2023-11-24 02:03:00,SystemResetWarning,0832.0,4.99,000.00,020.1,019.2,000.0,028.5,021.3,18.4,0000.0,0005.59,0010.90,0004.79
2023-11-24 02:04:00,SystemResetWarning,0832.0,5.00,000.00,020.0,019.1,000.0,028.5,021.3,18.4,0000.0,0005.58,0011.06,0004.79
2023-11-24 02:05:00,SystemResetWarning,0832.0,5.01,000.00,020.0,019.1,000.0,028.5,021.2,18.5,0000.0,0005.63,0011.84,0004.80
2023-11-24 02:06:00,SystemResetWarning,0832.0,5.01,000.00,020.0,019.1,000.0,028.5,021.2,18.4,0000.0,0005.67,0012.41,0004.81
2023-11-24 02:07:00,SystemResetWarning,0832.0,5.01,000.00,020.0,019.1,000.0,028.5,021.2,18.5,0000.0,0005.70,0012.53,0004.82
2023-11-24 02:08:00,SystemResetWarning,0832.0,5.00,000.00,020.0,019.1,000.0,028.4,021.2,18.5,0000.0,0005.69,0012.25,0004.81
2023-11-24 02:09:00,SystemResetWarning,0832.0,5.00,000.00,020.0,019.1,000.0,028.4,021.1,18.5,0000.0,0005.65,0011.80,0004.81
2023-11-24 02:10:00,SystemResetWarning,0832.1,5.00,000.00,020.0,019.1,000.0,028.4,021.2,18.6,0000.0,0005.68,0011.79,0004.83
2023-11-24 02:11:00,SystemResetWarning,0832.1,4.99,000.00,020.0,019.1,000.0,028.4,021.1,18.6,0000.0,0005.70,0011.41,0004.84
2023-11-24 02:12:00,SystemResetWarning,0832.1,4.99,000.00,020.0,019.1,000.0,028.4,021.1,18.7,0000.0,0005.75,0011.94,0004.85
2023-11-24 02:13:00,SystemResetWarning,0832.1,4.99,000.00,020.0,019.1,000.0,028.4,021.1,18.7,0000.0,0005.77,0013.60,0004.85
2023-11-24 02:14:00,SystemResetWarning,0832.1,5.00,000.00,020.0,019.1,000.0,028.4,021.2,18.7,0000.0,0005.79,0014.28,0004.86
2023-11-24 02:15:00,SystemResetWarning,0832.1,5.02,000.00,019.9,019.1,000.0,028.4,021.1,18.7,0000.0,0005.86,0014.68,0004.88
2023-11-24 02:16:00,SystemResetWarning,0832.1,5.00,000.00,019.9,019.0,000.0,028.4,021.2,18.7,0000.0,0005.89,0013.98,0004.90
2023-11-24 02:17:00,SystemResetWarning,0832.1,4.99,000.00,019.9,019.1,000.0,028.4,021.2,18.7,0000.0,0005.89,0013.47,0004.92
2023-11-24 02:18:00,SystemResetWarning,0832.1,5.00,000.00,019.9,019.0,000.0,028.4,021.1,18.7,0000.0,0005.89,0013.87,0004.92
2023-11-24 02:19:00,SystemResetWarning,0832.1,5.00,000.00,019.9,019.0,000.0,028.3,021.1,18.8,0000.0,0005.92,0013.98,0004.93
2023-11-24 02:20:00,SystemResetWarning,0832.1,5.01,000.00,019.9,019.0,000.0,028.3,021.1,18.9,0000.0,0005.98,0014.06,0004.95
2023-11-24 02:21:00,SystemResetWarning,0832.2,5.01,000.00,019.9,019.0,000.0,028.3,021.1,18.9,0000.0,0005.97,0014.54,0004.96
2023-11-24 02:22:00,SystemResetWarning,0832.2,5.00,000.00,019.9,019.0,000.0,028.3,021.1,18.9,0000.0,0005.95,0014.93,0004.96
2023-11-24 02:23:00,SystemResetWarning,0832.2,5.00,000.00,019.9,019.0,000.0,028.3,021.1,18.9,0000.0,0005.92,0014.62,0004.98
2023-11-24 02:24:00,SystemResetWarning,0832.1,5.01,000.00,019.9,019.0,000.0,028.3,021.1,18.8,0000.0,0005.90,0013.55,0005.01
2023-11-24 02:25:00,SystemResetWarning,0832.2,5.00,000.00,019.9,019.0,000.0,028.3,021.1,18.8,0000.0,0005.92,0013.97,0005.02
2023-11-24 02:26:00,SystemResetWarning,0832.2,4.99,000.00,019.9,019.0,000.0,028.3,021.1,18.8,0000.0,0005.91,0013.72,0005.03
2023-11-24 02:27:00,SystemResetWarning,0832.2,5.00,000.00,019.9,019.0,000.0,028.3,021.1,18.9,0000.0,0005.89,0014.28,0005.02
2023-11-24 02:28:00,SystemResetWarning,0832.2,5.01,000.00,019.9,019.0,000.0,028.3,021.1,18.9,0000.0,0005.92,0014.51,0005.03
2023-11-24 02:29:00,SystemResetWarning,0832.2,5.01,000.00,019.9,019.0,000.0,028.3,021.1,18.9,0000.0,0005.91,0014.24,0005.05
2023-11-24 02:30:00,SystemResetWarning,0832.2,5.00,000.00,019.9,019.0,000.0,028.3,021.1,18.9,0000.0,0005.93,0014.18,0005.07
2023-11-24 02:31:00,SystemResetWarning,0832.2,5.01,000.00,019.9,019.0,000.0,028.3,021.1,18.9,0000.0,0005.93,0014.10,0005.09
2023-11-24 02:32:00,SystemResetWarning,0832.2,4.98,000.00,019.9,019.0,000.0,028.3,021.1,18.9,0000.0,0005.97,0014.02,0005.11
2023-11-24 02:33:00,SystemResetWarning,0832.3,4.99,000.00,019.9,019.0,000.0,028.3,021.0,18.9,0000.0,0006.00,0013.40,0005.15
2023-11-24 02:34:00,SystemResetWarning,0832.3,5.00,000.00,019.9,019.0,000.0,028.3,021.0,18.9,0000.0,0006.01,0013.56,0005.17
2023-11-24 02:35:00,SystemResetWarning,0832.3,5.00,000.00,019.9,019.0,000.0,028.3,021.0,19.0,0000.0,0006.07,0013.43,0005.19
2023-11-24 02:36:00,SystemResetWarning,0832.3,5.00,000.00,019.9,019.0,000.0,028.2,021.1,19.0,0000.7,0006.08,0012.33,0005.20
2023-11-24 02:37:00,SystemResetWarning,0832.4,5.01,000.00,019.9,019.0,000.0,028.2,021.1,19.0,0000.9,0006.10,0011.89,0005.21
2023-11-24 02:38:00,SystemResetWarning,0832.4,4.99,000.00,019.9,019.0,000.0,028.2,021.0,19.0,0001.6,0006.16,0011.34,0005.25
2023-11-24 02:39:00,SystemResetWarning,0832.5,5.00,000.00,019.8,019.0,000.0,028.2,021.1,18.9,0001.3,0006.17,0011.09,0005.27
2023-11-24 02:40:00,SystemResetWarning,0832.5,5.00,000.00,019.8,018.9,000.0,028.2,021.0,18.8,0002.5,0006.20,0010.98,0005.29
2023-11-24 02:41:00,SystemResetWarning,0832.5,5.00,000.00,019.8,018.9,000.0,028.2,021.1,18.8,0002.5,0006.20,0011.09,0005.29
2023-11-24 02:42:00,SystemResetWarning,0832.5,5.00,000.00,019.8,018.9,000.0,028.2,021.0,18.7,0002.4,0006.21,0011.92,0005.29
2023-11-24 02:43:00,SystemResetWarning,0832.5,5.01,000.00,019.8,018.9,000.0,028.2,021.0,18.7,0002.3,0006.22,0011.73,0005.30
2023-11-24 02:44:00,SystemResetWarning,0832.5,5.00,000.00,019.8,018.9,000.0,028.2,021.0,18.7,0003.0,0006.20,0011.76,0005.28
2023-11-24 02:45:00,SystemResetWarning,0832.5,5.01,000.00,019.8,018.9,000.0,028.2,021.0,18.8,0003.9,0006.22,0011.99,0005.26
2023-11-24 02:46:00,SystemResetWarning,0832.5,5.00,000.00,019.8,018.9,000.0,028.2,021.0,18.8,0001.7,0006.16,0011.60,0005.23
2023-11-24 02:47:00,SystemResetWarning,0832.5,4.99,000.00,019.8,018.9,000.0,028.2,021.0,18.7,0000.0,0006.14,0011.60,0005.21
2023-11-24 02:48:00,SystemResetWarning,0832.5,4.99,000.00,019.8,018.9,000.0,028.2,021.0,18.6,0000.0,0006.11,0011.71,0005.20
2023-11-24 02:49:00,SystemResetWarning,0832.5,5.01,000.00,019.8,018.9,000.0,028.2,021.0,18.6,0000.0,0006.08,0011.88,0005.16
2023-11-24 02:50:00,SystemResetWarning,0832.6,5.01,000.00,019.8,018.9,000.0,028.2,021.0,18.6,0000.0,0006.07,0011.92,0005.14
2023-11-24 02:51:00,SystemResetWarning,0832.6,5.00,000.00,019.8,018.9,000.0,028.1,021.0,18.6,0000.0,0006.03,0011.84,0005.13
2023-11-24 02:52:00,SystemResetWarning,0832.5,4.98,000.00,019.8,018.9,000.0,028.1,021.0,18.7,0000.0,0006.01,0011.73,0005.12
2023-11-24 02:53:00,SystemResetWarning,0832.6,5.00,000.00,019.8,018.8,000.0,028.1,020.9,18.7,0000.0,0006.00,0011.37,0005.11
2023-11-24 02:54:00,SystemResetWarning,0832.5,5.00,000.00,019.7,018.8,000.0,028.1,020.9,18.6,0000.0,0005.97,0011.39,0005.08
2023-11-24 02:55:00,SystemResetWarning,0832.5,5.01,000.00,019.7,018.8,000.0,028.1,021.0,18.5,0000.0,0006.01,0011.68,0005.08
2023-11-24 02:56:00,SystemResetWarning,0832.6,5.01,000.00,019.7,018.8,000.0,028.1,020.9,18.6,0000.0,0006.03,0011.53,0005.08
2023-11-24 02:57:00,SystemResetWarning,0832.6,5.00,000.00,019.7,018.8,000.0,028.1,020.9,18.6,0000.0,0006.06,0011.79,0005.09
2023-11-24 02:58:00,SystemResetWarning,0832.6,5.00,000.00,019.7,018.8,000.0,028.1,020.9,18.5,0000.0,0006.05,0011.77,0005.10
2023-11-24 02:59:00,SystemResetWarning,0832.6,5.00,000.00,019.7,018.8,000.0,028.1,021.0,18.5,0000.0,0006.07,0011.75,0005.10
